![Mingus Ah Hum [Disco de Vinil]](https://m.media-amazon.com/images/I/514gUbbv-sL._SL500_.jpg)
Charles Mingus
Mingus Ah Hum [Disco de Vinil]
Preço atualR$ 187,26Atualizado em 01 de set de 2026
Média do históricoR$ 221,11↓ 15.3% abaixo da média
Preços podem variar · publicidade · ASIN B0034JKZ0O
Menor preço registrado ↓R$ 187,2024 de ago de 2026
Maior preço registrado ↑R$ 253,7908 de ago de 2026
Média do históricoR$ 221,1144 leitura(s) consideradas
Histórico monitorado
Evolução do preço
44 leituras entre 08 de ago de 2026 e 25 de ago de 2026
Preço atualR$ 187,26Todo o histórico
Arraste sobre uma região para ampliar. Passe o mouse para conferir cada leitura.
Ver todos os registros
| Data | Preço |
|---|---|
| 01/09/2026, 02:30:01 | preço indisponível |
| 31/08/2026, 20:55:54 | preço indisponível |
| 31/08/2026, 14:52:38 | preço indisponível |
| 31/08/2026, 02:31:42 | preço indisponível |
| 30/08/2026, 20:59:27 | preço indisponível |
| 30/08/2026, 02:34:15 | preço indisponível |
| 29/08/2026, 20:57:37 | preço indisponível |
| 29/08/2026, 14:52:15 | preço indisponível |
| 28/08/2026, 20:57:54 | preço indisponível |
| 28/08/2026, 14:55:42 | preço indisponível |
| 28/08/2026, 02:31:00 | preço indisponível |
| 27/08/2026, 20:57:06 | preço indisponível |
| 27/08/2026, 14:54:26 | preço indisponível |
| 26/08/2026, 20:57:25 | preço indisponível |
| 26/08/2026, 14:54:47 | preço indisponível |
| 25/08/2026, 20:59:01 | R$ 187,26 |
| 25/08/2026, 14:58:23 | R$ 187,26 |
| 25/08/2026, 02:31:17 | R$ 187,26 |
| 24/08/2026, 20:58:25 | R$ 187,20 |
| 24/08/2026, 14:56:36 | R$ 187,20 |
| 24/08/2026, 02:35:07 | R$ 187,20 |
| 23/08/2026, 21:01:25 | R$ 187,63 |
| 23/08/2026, 15:00:22 | R$ 187,63 |
| 23/08/2026, 02:35:21 | R$ 187,63 |
| 22/08/2026, 15:00:25 | R$ 187,63 |
| 22/08/2026, 02:35:33 | R$ 187,63 |
| 21/08/2026, 21:01:19 | R$ 187,80 |
| 21/08/2026, 02:35:00 | R$ 187,80 |
| 20/08/2026, 21:01:27 | R$ 187,80 |
| 20/08/2026, 14:58:49 | R$ 187,80 |
| 20/08/2026, 02:34:48 | R$ 253,79 |
| 19/08/2026, 21:00:29 | R$ 188,36 |
| 19/08/2026, 14:59:13 | R$ 188,36 |
| 18/08/2026, 20:58:52 | R$ 207,19 |
| 18/08/2026, 14:57:40 | R$ 208,66 |
| 18/08/2026, 02:33:36 | R$ 229,90 |
| 17/08/2026, 21:06:27 | R$ 229,90 |
| 17/08/2026, 14:57:54 | R$ 229,90 |
| 16/08/2026, 21:04:53 | R$ 229,90 |
| 16/08/2026, 15:02:55 | R$ 229,90 |
| 16/08/2026, 02:35:37 | R$ 228,34 |
| 15/08/2026, 20:59:27 | R$ 228,34 |
| 15/08/2026, 15:05:22 | R$ 228,34 |
| 15/08/2026, 02:42:14 | R$ 228,34 |
| 14/08/2026, 21:01:19 | R$ 253,79 |
| 14/08/2026, 02:35:54 | R$ 253,79 |
| 13/08/2026, 20:58:13 | R$ 253,79 |
| 13/08/2026, 14:57:29 | R$ 253,79 |
| 13/08/2026, 02:34:58 | R$ 253,79 |
| 12/08/2026, 20:59:21 | R$ 253,79 |
| 12/08/2026, 14:55:01 | R$ 253,79 |
| 11/08/2026, 20:59:09 | R$ 253,79 |
| 11/08/2026, 14:59:40 | R$ 253,79 |
| 10/08/2026, 21:15:50 | R$ 253,79 |
| 10/08/2026, 15:15:29 | R$ 253,79 |
| 09/08/2026, 21:14:25 | R$ 253,79 |
| 09/08/2026, 15:10:26 | R$ 253,79 |
| 08/08/2026, 21:16:23 | R$ 253,79 |
| 08/08/2026, 18:35:08 | R$ 253,79 |
Sobre este disco
Monitoramos este item para registrar variações de preço ao longo do tempo. A nota da Amazon será preenchida automaticamente quando a API liberar esse dado para a nossa conta.